Location: Le Domaine
(47.0333°N, 76.5361°W)
Time: 05:03:57
(UTC-04:00)

Envisat - Visible Passes

Search period start: 14 October 2019 00:00
Search period end: 24 October 2019 00:00
Orbit: 764 x 766 km, 98.1° (Epoch: 14 October)

Date Brightness Start Highest point End Pass type
(mag) Time Alt. Az. Time Alt. Az. Time Alt. Az.
14 Oct 3.0 18:55:12 10° SSE 19:00:15 76° ENE 19:05:21 10° N visible
14 Oct 6.0 20:36:54 10° SW 20:39:52 15° W 20:42:49 10° NW visible
15 Oct 4.9 19:58:13 10° SSW 20:02:42 31° W 20:07:14 10° NNW visible
16 Oct 3.5 19:20:43 10° S 19:25:46 66° WSW 19:30:51 10° NNW visible
17 Oct 3.0 18:44:01 10° SSE 18:49:01 61° ENE 18:54:02 10° N visible
17 Oct 5.7 20:24:52 10° SW 20:28:27 19° W 20:32:03 10° NW visible
18 Oct 6.2 06:50:59 10° NE 06:54:14 17° E 06:57:29 10° SE visible
18 Oct 4.5 19:46:38 10° SSW 19:51:22 39° W 19:56:08 10° NNW visible
19 Oct 3.1 19:09:25 10° SSE 19:14:29 82° WSW 19:19:36 10° NNW visible
19 Oct 6.2 20:52:56 10° WSW 20:54:19 11° W 20:55:42 10° WNW visible
20 Oct 3.2 18:32:55 10° SE 18:37:47 49° ENE 18:42:42 10° N visible
20 Oct 5.4 20:13:02 10° SW 20:17:04 24° W 20:21:08 10° NW visible
21 Oct 6.3 06:40:21 10° ENE 06:42:49 13° E 06:45:17 10° ESE visible
21 Oct 4.0 19:35:09 10° S 19:40:03 48° W 19:44:59 10° NNW visible
22 Oct 3.0 18:58:08 10° SSE 19:03:13 82° ENE 19:08:20 10° NNW visible
22 Oct 6.1 20:40:16 10° WSW 20:42:53 14° W 20:45:32 10° NW visible
23 Oct 5.0 20:01:20 10° SSW 20:05:42 29° W 20:10:08 10° NW visible
